HS6PNA-2 Weather Reports


time (UTC)temp
C
wind
direction
speed
KPH
gust
KPH
rain 1hr
cm
rain 24hr
cm
rain mn
cm
humidity
%
barometer
mb
20260508064239 31 0 0.0 0.0 0.00 0.00 0.00 40 1002.0
20260508062715 31 0 0.0 0.0 0.00 0.00 0.00 39 1001.0
20260508061150 30 0 0.0 0.0 0.00 0.00 0.00 40 1001.0
20260508055626 31 0 0.0 0.0 0.00 0.00 0.00 39 1001.0
20260508054101 31 0 0.0 0.0 0.00 0.00 0.00 40 1002.0
20260508052537 30 0 0.0 0.0 0.00 0.00 0.00 41 1003.0
20260508051012 31 0 0.0 0.0 0.00 0.00 0.00 40 1003.0
20260508045448 30 0 0.0 0.0 0.00 0.00 0.00 39 1003.0
20260508043923 31 0 0.0 0.0 0.00 0.00 0.00 37 1004.0
20260508042359 32 0 0.0 0.0 0.00 0.00 0.00 37 1004.0
20260508040835 32 0 0.0 0.0 0.00 0.00 0.00 36 1005.0
20260508035310 32 0 0.0 0.0 0.00 0.00 0.00 40 1005.0
20260508033746 33 0 0.0 0.0 0.00 0.00 0.00 44 1005.0
20260508032221 35 0 0.0 0.0 0.00 0.00 0.00 49 1005.0
20260508030657 35 0 0.0 0.0 0.00 0.00 0.00 50 1005.0
20260508025132 35 0 0.0 0.0 0.00 0.00 0.00 50 1005.0
20260508023607 35 0 0.0 0.0 0.00 0.00 0.00 51 1005.0
20260508022043 34 0 0.0 0.0 0.00 0.00 0.00 52 1005.0
20260508020519 35 0 0.0 0.0 0.00 0.00 0.00 52 1005.0
20260508014954 34 0 0.0 0.0 0.00 0.00 0.00 50 1005.0
20260508013807 34 0 0.0 0.0 0.00 0.00 0.00 49 1005.0
20260508012242 33 0 0.0 0.0 0.00 0.00 0.00 50 1005.0
20260508010718 33 0 0.0 0.0 0.00 0.00 0.00 49 1005.0
20260508005153 33 0 0.0 0.0 0.00 0.00 0.00 50 1005.0
20260508003628 33 0 0.0 0.0 0.00 0.00 0.00 50 1004.0
20260508002104 33 0 0.0 0.0 0.00 0.00 0.00 49 1004.0
20260508000539 33 0 0.0 0.0 0.00 0.00 0.00 48 1004.0
20260507235014 33 0 0.0 0.0 0.00 0.00 0.00 48 1004.0
20260507233449 33 0 0.0 0.0 0.00 0.00 0.00 48 1004.0
20260507231925 33 0 0.0 0.0 0.00 0.00 0.00 48 1004.0
20260507230359 33 0 0.0 0.0 0.00 0.00 0.00 47 1004.0
20260507224834 33 0 0.0 0.0 0.00 0.00 0.00 47 1004.0
20260507223309 33 0 0.0 0.0 0.00 0.00 0.00 46 1003.0
20260507221745 33 0 0.0 0.0 0.00 0.00 0.00 46 1003.0
20260507220220 33 0 0.0 0.0 0.00 0.00 0.00 46 1003.0
20260507214801 32 0 0.0 0.0 0.00 0.00 0.00 45 1003.0
20260507213237 32 0 0.0 0.0 0.00 0.00 0.00 46 1003.0
20260507211712 32 0 0.0 0.0 0.00 0.00 0.00 45 1003.0
20260507210147 32 0 0.0 0.0 0.00 0.00 0.00 44 1003.0
20260507204621 32 0 0.0 0.0 0.00 0.00 0.00 43 1002.0
20260507203056 32 0 0.0 0.0 0.00 0.00 0.00 42 1002.0
20260507201532 32 0 0.0 0.0 0.00 0.00 0.00 42 1002.0
20260507200007 32 0 0.0 0.0 0.00 0.00 0.00 41 1002.0
20260507194442 32 0 0.0 0.0 0.00 0.00 0.00 41 1002.0
20260507192917 31 0 0.0 0.0 0.00 0.00 0.00 40 1003.0
20260507191352 28 0 0.0 0.0 0.00 0.00 0.00 44 1003.0
20260507185828 29 0 0.0 0.0 0.00 0.00 0.00 44 1003.0
20260507184303 28 0 0.0 0.0 0.00 0.00 0.00 44 1003.0
20260507182739 28 0 0.0 0.0 0.00 0.00 0.00 45 1003.0
20260507181214 30 0 0.0 0.0 0.00 0.00 0.00 42 1003.0
20260507175649 30 0 0.0 0.0 0.00 0.00 0.00 41 1004.0
20260507174124 29 0 0.0 0.0 0.00 0.00 0.00 42 1004.0
20260507172557 30 0 0.0 0.0 0.00 0.00 0.00 40 1004.0
20260507171032 30 0 0.0 0.0 0.00 0.00 0.00 41 1004.0
20260507165508 30 0 0.0 0.0 0.00 0.00 0.00 39 1004.0
20260507163943 30 0 0.0 0.0 0.00 0.00 0.00 40 1004.0
20260507162418 30 0 0.0 0.0 0.00 0.00 0.00 40 1004.0
20260507160854 30 0 0.0 0.0 0.00 0.00 0.00 41 1005.0
20260507155330 31 0 0.0 0.0 0.00 0.00 0.00 39 1005.0
20260507153805 31 0 0.0 0.0 0.00 0.00 0.00 39 1005.0
20260507152241 31 0 0.0 0.0 0.00 0.00 0.00 40 1005.0
20260507150716 31 0 0.0 0.0 0.00 0.00 0.00 42 1004.0
20260507145152 31 0 0.0 0.0 0.00 0.00 0.00 40 1004.0
20260507143627 31 0 0.0 0.0 0.00 0.00 0.00 37 1004.0
20260507142103 31 0 0.0 0.0 0.00 0.00 0.00 37 1004.0
20260507140538 31 0 0.0 0.0 0.00 0.00 0.00 38 1004.0
20260507135014 30 0 0.0 0.0 0.00 0.00 0.00 40 1003.0
20260507133450 31 0 0.0 0.0 0.00 0.00 0.00 36 1003.0
20260507131925 31 0 0.0 0.0 0.00 0.00 0.00 35 1002.0
20260507130400 32 0 0.0 0.0 0.00 0.00 0.00 33 1002.0
20260507124836 31 0 0.0 0.0 0.00 0.00 0.00 31 1002.0
20260507123311 33 0 0.0 0.0 0.00 0.00 0.00 28 1002.0
20260507121746 32 0 0.0 0.0 0.00 0.00 0.00 28 1002.0
20260507120222 33 0 0.0 0.0 0.00 0.00 0.00 27 1002.0
20260507114657 33 0 0.0 0.0 0.00 0.00 0.00 26 1002.0
20260507113132 33 0 0.0 0.0 0.00 0.00 0.00 28 1001.0
20260507111607 35 0 0.0 0.0 0.00 0.00 0.00 33 1001.0
20260507110042 37 0 0.0 0.0 0.00 0.00 0.00 45 1000.0
20260507104518 40 0 0.0 0.0 0.00 0.00 0.00 41 1000.0
20260507102953 39 0 0.0 0.0 0.00 0.00 0.00 41 1000.0
20260507101428 40 0 0.0 0.0 0.00 0.00 0.00 40 1000.0
20260507095903 40 0 0.0 0.0 0.00 0.00 0.00 41 999.0
20260507094339 40 0 0.0 0.0 0.00 0.00 0.00 41 1000.0
20260507092814 40 0 0.0 0.0 0.00 0.00 0.00 41 999.0
20260507091249 39 0 0.0 0.0 0.00 0.00 0.00 41 999.0
20260507085725 39 0 0.0 0.0 0.00 0.00 0.00 41 999.0
20260507084200 38 0 0.0 0.0 0.00 0.00 0.00 42 999.0
20260507082635 38 0 0.0 0.0 0.00 0.00 0.00 42 999.0
20260507081111 38 0 0.0 0.0 0.00 0.00 0.00 43 999.0
20260507075546 38 0 0.0 0.0 0.00 0.00 0.00 43 1000.0
20260507074022 38 0 0.0 0.0 0.00 0.00 0.00 43 1000.0
20260507072456 38 0 0.0 0.0 0.00 0.00 0.00 44 1000.0
20260507070932 38 0 0.0 0.0 0.00 0.00 0.00 44 1000.0
20260507065407 38 0 0.0 0.0 0.00 0.00 0.00 44 1000.0